Location: Aranbee
(34.0885°N, 118.2342°W)
Time: 13:09:55
(UTC+00:00)

Tiros 1 - Pass Details

Date: 26 November 2020
Orbit: 630 x 663 km, 48.4° (Epoch: 21 January)

Event Time Altitude Azimuth Distance (km) Brightness Sun altitude
Rises 00:56:34 0° 262° (W) 2,986 12.5 -3.1°
Reaches altitude 10° 00:59:10 10° 273° (W) 2,073 11.0 -3.6°
Maximum altitude 01:03:21 29° 334° (NNW) 1,199 8.6 -4.4°
Drops below altitude 10° 01:07:32 10° 35° (NE) 2,066 9.2 -5.2°
Enters shadow 01:09:04 - 43° (NE) 2,595 9.7 -5.5°
Sets 01:10:08 0° 47° (NE) 2,974 - -5.7°
